Theta_e
299 299 299 299 299 299 299 299 301 303 303 304 305 306 307 308 306 306 307 308 310 311
299 299 299 300 300 300 300 303 304 303 304 306 308 306 308 309 309 309 308 311 309 309
300 301 301 301 300 301 303 305 306 304 305 306 307 306 307 310 311 311 311 313 312 313
301 304 303 300 302 303 305 306 307 307 308 305 307 308 308 308 309 309 310 311 310 309
300 303 303 303 304 306 305 307 307 306 305 306 307 307 306 306 308 309 308 307 305 304
302 301 299 302 303 306 305 302 305 304 303 304 306 303 303 304 306 306 305 303 301 301
301 299 300 299 303 304 304 302 304 305 304 304 303 303 304 305 304 304 303 302 300 300
301 301 300 302 303 303 302 302 302 305 304 301 301 301 299 302 301 300 300 301 302 301
302 302 302 302 301 301 302 301 302 301 301 299 300 300 301 301 299 301 300 299 298 300
302 300 300 300 301 301 300 300 299 300 299 297 294 298 298 300 299 303 299 296 296 298
300 299 300 300 300 301 300 300 299 298 298 294 295 298 297 300 298 302 297 297 297 294
301 300 300 300 300 301 301 300 299 297 297 295 295 297 297 296 297 299 297 297 297 295
301 301 300 301 300 301 300 301 301 300 297 300 295 296 296 295 294 293 295 295 297 299
304 301 299 296 296 294 296 299 299 300 298 295 294 292 295 296 294 292 294 297 296 297
Wind_Speed
7 4 4 5 5 5 4 6 7 8 8 10 10 10 9 7 5 6 5 7 4 3
7 7 6 7 5 4 6 6 7 7 7 8 7 7 8 6 6 5 5 6 5 3
6 6 5 5 6 6 7 7 8 7 6 6 7 6 8 8 8 8 5 5 5 4
7 8 6 6 7 6 7 7 7 8 7 6 7 7 7 7 8 9 7 8 9 9
8 6 6 6 8 8 8 9 6 9 8 8 9 8 9 9 9 9 9 9 9 8
8 7 7 8 8 8 8 7 8 8 8 8 9 8 7 7 6 8 6 6 7 6
9 6 7 7 7 7 6 6 8 9 11 11 9 9 9 7 6 6 5 5 5 5
7 7 6 7 7 6 6 6 6 7 7 6 7 7 7 7 6 5 5 5 5 3
6 6 6 5 6 6 5 6 5 5 5 6 4 10 10 6 4 5 6 6 7 6
5 6 6 6 6 6 4 4 5 5 5 6 7 13 13 12 3 3 5 5 6 5
4 5 7 7 6 6 3 4 3 4 5 6 7 15 19 16 6 4 3 3 4 5
5 6 7 7 7 6 4 3 2 2 5 6 7 16 17 13 7 5 3 3 4 4
6 7 7 7 8 5 5 5 1 1 5 9 7 12 17 13 5 8 6 7 7 8
7 5 4 5 6 6 8 10 8 6 4 5 6 8 15 15 8 4 7 5 6 9
Wind_Direction
6 359 341 347 343 336 323 320 325 332 327 324 318 321 316 307 289 296 303 302 296 275
352 350 342 333 325 313 306 306 315 307 300 299 312 324 315 293 290 304 297 292 283 272
332 330 333 334 331 324 316 317 325 313 320 322 329 326 334 355 2 359 351 1 32 41
340 356 352 348 334 325 325 328 336 332 331 330 331 339 335 349 349 353 6 26 35 26
349 346 358 347 342 334 342 345 343 356 357 359 360 17 0 348 350 33 32 31 32 21
351 354 354 3 348 6 20 356 9 6 9 5 8 5 345 345 37 44 34 27 29 18
355 7 6 353 1 4 7 3 5 24 31 31 21 11 1 19 24 33 34 27 40 32
359 7 2 1 349 342 349 355 349 21 33 13 20 11 5 360 6 19 10 358 353 5
352 351 340 336 339 346 347 353 2 5 18 17 352 340 354 11 335 354 19 4 359 9
342 346 322 330 329 329 314 327 341 351 15 9 1 355 349 348 311 348 40 18 5 354
327 316 311 316 323 329 289 304 324 5 29 20 359 7 11 3 2 63 61 8 346 356
323 311 302 310 309 295 295 289 343 40 35 27 8 11 10 14 15 26 338 296 311 318
289 293 313 338 349 317 314 284 246 83 40 35 24 8 10 16 6 3 342 311 305 290
316 328 7 5 10 359 6 23 35 62 41 31 23 3 10 9 9 347 334 320 328 326